Regional Weather Roundup
Issued by NWS Upton, NY

Current Version | Previous Version | Text Only | Print | Product List | Glossary On
Versions: 1 2 3 4 5 6 7 8 9 10 11 12 13 14 15 16 17 18 19 20 21 22 23 24 25 26 27 28 29 30 31 32 33 34 35 36 37 38 39 40 41 42 43 44 45 46 47 48 49 50
000 ASUS41 KOKX 232305 RWROKX REGIONAL WEATHER ROUNDUP NATIONAL WEATHER SERVICE NEW YORK NY 600 PM EST TUE DEC 23 2014 NOTE: "FAIR" INDICATES FEW OR NO CLOUDS BELOW 12,000 FEET WITH NO SIGNIFICANT WEATHER AND/OR OBSTRUCTIONS TO VISIBILITY. NYZ071-072-176-178-NJZ106-104-240000- NEW YORK CITY METRO AREA CITY SKY/WX TMP DP RH WIND PRES REMARKS CENTRAL PARK CLOUDY 46 44 93 NE5 30.11S FOG LAGUARDIA APRT DRIZZLE 46 44 93 NE8 30.09S FOG KENNEDY INTL DRIZZLE 47 44 90 N10 30.09F FOG NEWARK/LIBERTY DRZL/FOG 46 45 96 N10 30.08F VSB 1 BRNX BOT. GARD N/A 45 45 100 NE6 30.11R TETERBORO LGT RAIN 45 45 100 N5 30.09S FOG $$ NYZ177-179-078>081-240000- LONG ISLAND NEW YORK CITY SKY/WX TMP DP RH WIND PRES REMARKS FARMINGDALE CLOUDY 46 44 93 NE9 30.08S FOG ISLIP DRIZZLE 47 45 93 NE13 30.08R FOG SHIRLEY CLOUDY 47 46 97 VRB5 30.10R FOG WESTHAMPTON CLOUDY 47 46 97 NE9 30.11R FOG MONTAUK POINT N/A 48 46 93 NE10 30.10R $$ NYZ052-065-067-240000- HUDSON VALLEY CITY SKY/WX TMP DP RH WIND PRES REMARKS WHITE PLAINS DRIZZLE 45 43 93 NE6 30.08S FOG NEWBURGH CLOUDY 41 41 100 E5 30.11F FOG MONTGOMERY CLOUDY 43 41 93 NE6 30.10S FOG POUGHKEEPSIE CLOUDY 43 41 93 CALM 30.11F FOG ALBANY DRIZZLE 38 36 92 CALM 30.15R FOG $$ NJZ001-105-106-008-010-013-015-019>022-104-240000- NEW JERSEY CITY SKY/WX TMP DP RH WIND PRES REMARKS NEWARK/LIBERTY DRZL/FOG 46 45 96 N10 30.08F VSB 1 TETERBORO LGT RAIN 45 45 100 N5 30.09S FOG CALDWELL CLOUDY 45 44 97 CALM 30.10R FOG MORRISTOWN LGT RAIN 50 48 93 NE5 30.10S FOG SOMERVILLE CLOUDY 47 44 90 NE3 30.07R FOG SUSSEX CLOUDY 42 41 96 NE6 30.10R FOG ANDOVER NOT AVBL TRENTON CLOUDY 46 44 93 NE7 30.06F FOG MILLVILLE CLOUDY 51 50 96 NE7 30.04F FOG ATLANTIC CITY CLOUDY 50 49 96 N6 30.05S FOG WRIGHTSTOWN CLOUDY 46 46 100 NE8 30.04F FOG TOMS RIVER CLOUDY 46 46 100 NE8 30.07S BELMAR CLOUDY 46 41 81 N7 30.07S $$ PAZ047>061-062-071-240000- EASTERN PENNSYLVANIA CITY SKY/WX TMP DP RH WIND PRES REMARKS PHILADELPHIA CLOUDY 49 47 93 E7 30.07S ALLENTOWN CLOUDY 45 43 93 NE7 30.07F FOG SCRANTON CLOUDY 47 40 76 E6 30.04F $$ CTZ002-004>006-009-010-012-RIZ004-006-007-MAZ004-011-015-240000- SOUTHERN NEW ENGLAND IN CT CITY SKY/WX TMP DP RH WIND PRES REMARKS BRADLEY INTL DRIZZLE 42 39 89 N10 30.15R FOG HARTFORD CLOUDY 43 40 89 N10 30.15R FOG DANBURY CLOUDY 43 40 89 NE8 30.11F FOG WTRBRY/OXFORD DRIZZLE 43 36 75 E10 30.10F FOG BRIDGEPORT CLOUDY 46 44 93 NE9 30.11R MERIDEN CLOUDY 43 41 93 N8 30.13R FOG NEW HAVEN CLOUDY 48 43 82 N12 30.10S HAZE CHESTER CLOUDY 45 45 100 NE8 30.11S FOG GROTON CLOUDY 47 46 97 N10 30.10R WILLIMANTIC CLOUDY 46 43 89 N9 30.13S IN RI CITY SKY/WX TMP DP RH WIND PRES REMARKS PROVIDENCE LGT RAIN 46 45 96 N12 30.13S FOG BLOCK ISLAND CLOUDY 46 43 87 NE14G21 30.08S VSB 1 WESTERLY CLOUDY 47 46 97 NE9 30.10S IN MA CITY SKY/WX TMP DP RH WIND PRES REMARKS BOSTON LGT RAIN 46 45 96 NE12 30.18R VSB 3/4 WORCESTER FOG 40 40 100 NE9 30.14S VSB 1/2 WCI 34 WESTFIELD CLOUDY 41 38 89 N8 30.16R FOG PROVINCETOWN CLOUDY 46 45 93 E12 30.15R NANTUCKET CLOUDY 50 47 89 E16 30.08S $$ ANZ330-335-338-340-345-350-353-355-240000- COASTAL MARINE OBSERVATIONS STATION/POSITION TIME SKY/WX TEMP WIND PRES VSBY WAVE AIR SEA DIR/SP/G HT/PER (UTC) (F) (DEG/KT/KT) (MB) (MI) (FT/S) NY HARB ENTRANCE 2300 46 46 10/ 10/ 12 1018.7 6/ 7 4S FIRE IS 2300 47 N/A 6/ 7 20S FIRE ISLAND 2200 49 49 1017.6 8/ 8 23SW MTP 2300 N/A 6/ 7 HUDSON CANYON 2300 53 54 50/ 16/ 17 1016.0 8/ 8 EXECUTION ROCKS 2300 44 42 50/ 6/ 8 N/A WESTERN LI SOUND 2300 45 40/ 8/ 8 N/A 1/ 4 CENTRAL LI SOUND 2200 45 44 20/ 10/ 12 N/A 1/ 4 EASTERN LI SOUND NOT AVBL ROBBINS REEF 2300 46 1017.6 $$ >>>>>>>>>>>>>>>>>>>>>>>>>>>> KEY <<<<<<<<<<<<<<<<<<<<<<<<<<< > < > SKY/WX - SKY CONDITION/PRESENT WEATHER < > TMP - TEMPERATURE IN FAHRENHEIT < > DP - DEWPOINT IN FAHRENHEIT < > RH - RELATIVE HUMIDITY IN PERCENT < > WIND - DIRECTION AND SPEED IN MPH < > PRES - MEAN SEA LEVEL PRESSURE IN INCHES OF HG < > WCI - WIND CHILL INDEX < > VSB - VISIBILITY IN MILES < > HX - HEAT INDEX < > TC - TEMPERATURE IN CELSIUS < > VRB - VARIABLE WIND DIRECTION < > < >>>>>>>>>>>>>>>>>>>>>>>>>>>> KEY <<<<<<<<<<<<<<<<<<<<<<<<<<<

USA.gov is the U.S. government's official web portal to all federal, state and local government web resources and services.